Погода в Вороново

Беларусь     54°09′08″N   25°19′09″E
темп.,
°C
ветер,
м/с
пор.,
м/с
влажн.,
%
обл.,
%
осадки,
мм/ч
давл.,
гПа
погр.,
м
21 апреля, ср
ср2100:00+5вюв3489100 0.0 101167
03:00+4ююв229261 0.0 101027
06:00+5ююз129893 0.6 100921
09:00+8зюз238463 0.9 1008335
12:00+12з5662100 0.4 1007931
15:00+13з5741100 0.6 10071764
18:00+13зсз474922 0.0 10061889
21:00+8з22665 0.0 100711
22 апреля, чт
чт2200:00+6зюз117424 0.0 100810
03:00+5зсз11856 0.0 100810
06:00+4ююв11855 0.0 100711
09:00+6сз458199 0.1 1008506
12:00+6юз5879100 0.1 1010980
15:00+9зюз81041100 0.2 10091853
18:00+8зюз695465 0.3 10091668
21:00+5юз5116997 0.4 1010547
23 апреля, пт
пт2300:00+3зюз511855 0.0 1010602
03:00+1юз512856 0.0 1011652
06:00+1зюз61086100 0.0 10111030
09:00+2з61082100 0.3 10121065
12:00+4з687898 0.6 10131176
15:00+7з7104395 1.1 10132649
18:00+7зсз584414 0.2 10132164
21:00+2зсз366998 0.3 1014119
24 апреля, сб
сб2400:000зсз3981100 0.0 1015268
03:00−1з4987100 0.0 1015376
06:00−1з41094100 0.1 1014499
09:00+1з598787 0.2 1015679
12:00+4зсз7871100 0.5 10151241
15:00+6сз6961100 1.1 10141596
18:00+5зсз61067100 0.9 10151437
21:00+2зсз511685 0.9 1015456
25 апреля, вс
вс2500:00−1з6128439 0.0 1015587
03:000зсз61197100 1.1 1014617
06:00−1зсз71391100 0.4 1015816
09:00+1зсз8138699 0.6 10141118
12:00+3зсз91377100 0.5 10141321
15:00+6зсз9136695 1.2 10141750
18:00+3сз81379100 0.8 10151337
21:00+1зсз6128074 0.9 1015752